HB9DOZ-13 Weather Reports


time (UTC)temp
C
wind
direction
speed
KPH
gust
KPH
rain 1hr
cm
rain 24hr
cm
rain mn
cm
humidity
%
barometer
mb
20260506213516 7 9 3.2 3.2 0.00 0.08 0.08 94
20260506212517 7 6 1.6 3.2 0.00 0.08 0.08 94
20260506211517 7 347 0.0 3.2 0.00 0.08 0.08 93
20260506210515 7 7 1.6 3.2 0.00 0.08 0.08 92
20260506205535 7 2 1.6 3.2 0.00 0.08 0.08 92
20260506204515 7 357 1.6 4.8 0.00 0.08 0.08 91
20260506203516 7 0.0 0.0 0.00 0.08 0.08 90
20260506202516 7 0.0 0.0 0.00 0.08 0.08 89
20260506201517 7 0.0 0.0 0.00 0.08 0.08 89
20260506200557 7 321 0.0 1.6 0.00 0.08 0.08 89
20260506195536 8 0.0 0.0 0.00 0.08 0.08 89
20260506194515 8 331 0.0 1.6 0.00 0.08 0.08 89
20260506193536 8 353 0.0 1.6 0.00 0.08 0.08 89
20260506192516 8 333 0.0 1.6 0.00 0.08 0.08 90
20260506191536 8 336 1.6 4.8 0.00 0.08 0.08 90
20260506190516 8 318 0.0 1.6 0.00 0.08 0.08 90
20260506185517 8 328 0.0 1.6 0.00 0.08 0.08 89
20260506184558 8 328 0.0 1.6 0.00 0.08 0.08 89
20260506183515 8 337 0.0 3.2 0.00 0.08 0.08 88
20260506182516 8 331 0.0 3.2 0.00 0.08 0.08 88
20260506181516 9 351 0.0 3.2 0.00 0.08 0.08 88
20260506180516 8 323 0.0 4.8 0.00 0.08 0.08 89
20260506175556 8 330 0.0 3.2 0.00 0.08 0.08 89
20260506174517 9 335 0.0 4.8 0.00 0.08 0.08 89
20260506173518 9 324 0.0 3.2 0.00 0.08 0.08 90
20260506172535 9 9 0.0 1.6 0.00 0.08 0.08 91
20260506171515 9 8 0.0 1.6 0.00 0.08 0.08 92
20260506170516 9 331 0.0 1.6 0.00 0.08 0.08 92
20260506165536 9 0.0 0.0 0.00 0.08 0.08 94
20260506164517 9 309 0.0 1.6 0.00 0.08 0.08 94
20260506163517 9 233 0.0 1.6 0.00 0.08 0.08 94
20260506162517 9 294 0.0 1.6 0.00 0.08 0.08 94
20260506161515 9 343 0.0 1.6 0.00 0.08 0.08 94
20260506160516 9 323 0.0 1.6 0.00 0.08 0.08 94
20260506155536 9 229 0.0 3.2 0.00 0.08 0.08 94
20260506154516 9 263 0.0 1.6 0.00 0.08 0.08 94
20260506153536 9 252 0.0 3.2 0.00 0.08 0.08 95
20260506152517 9 338 0.0 3.2 0.00 0.08 0.08 96
20260506151517 8 327 0.0 1.6 0.00 0.08 0.08 95
20260506150515 8 310 0.0 1.6 0.00 0.08 0.08 95
20260506145535 8 279 0.0 3.2 0.00 0.08 0.08 95
20260506144536 8 257 1.6 6.4 0.00 0.08 0.08 94
20260506143516 9 261 1.6 6.4 0.03 0.08 0.08 95
20260506142516 9 259 0.0 3.2 0.03 0.08 0.08 96
20260506141517 9 254 0.0 1.6 0.03 0.08 0.08 95
20260506140517 9 252 1.6 6.4 0.03 0.08 0.08 95
20260506135515 9 273 0.0 3.2 0.03 0.08 0.08 96
20260506134515 8 265 0.0 1.6 0.03 0.08 0.08 95
20260506133516 9 260 0.0 1.6 0.00 0.05 0.05 95
20260506132517 9 246 0.0 3.2 0.00 0.05 0.05 94
20260506131516 9 239 3.2 11.3 0.00 0.05 0.05 93
20260506130617 9 233 4.8 17.7 0.00 0.05 0.05 92
20260506125517 10 235 3.2 14.5 0.00 0.05 0.05 96
20260506124515 9 230 0.0 8.0 0.05 0.05 0.05 97
20260506123515 9 264 0.0 4.8 0.05 0.05 0.05 97
20260506122516 9 243 1.6 9.7 0.05 0.05 0.05 96
20260506121516 9 231 3.2 14.5 0.05 0.05 0.05 96
20260506120516 9 211 3.2 11.3 0.05 0.05 0.05 97
20260506115517 9 207 1.6 6.4 0.05 0.05 0.05 98
20260506114517 9 244 0.0 4.8 0.00 0.00 0.00 97
20260506113515 9 231 3.2 11.3 0.00 0.00 0.00 98
20260506112516 8 253 1.6 4.8 0.00 0.00 0.00 97
20260506111516 8 306 0.0 3.2 0.00 0.00 0.00 97
20260506110536 8 262 0.0 4.8 0.00 0.00 0.00 98
20260506105516 9 268 1.6 6.4 0.00 0.00 0.00 98
20260506104517 9 256 3.2 12.9 0.00 0.00 0.00 98
20260506103517 9 226 4.8 16.1 0.00 0.00 0.00 98
20260506102515 10 224 8.0 19.3 0.00 0.00 0.00 98
20260506101516 10 235 3.2 11.3 0.00 0.00 0.00 97
20260506100516 10 223 3.2 12.9 0.00 0.00 0.00 97
20260506095516 10 243 0.0 4.8 0.00 0.00 0.00 97
20260506094517 10 224 0.0 1.6 0.00 0.00 0.00 96
20260506093517 10 211 1.6 8.0 0.00 0.00 0.00 95
20260506092517 10 203 0.0 1.6 0.00 0.00 0.00 94
20260506091515 10 0.0 0.0 0.00 0.00 0.00 94
20260506090517 10 0.0 0.0 0.00 0.00 0.00 93
20260506085516 10 0.0 0.0 0.00 0.00 0.00 94
20260506084517 10 0.0 0.0 0.00 0.00 0.00 95
20260506083517 10 141 0.0 1.6 0.00 0.00 0.00 95
20260506082516 10 146 1.6 4.8 0.00 0.00 0.00 95
20260506081517 10 158 4.8 6.4 0.00 0.00 0.00 94
20260506080515 10 170 3.2 6.4 0.00 0.00 0.00 93
20260506073516 10 129 1.6 3.2 0.00 0.00 0.00 95
20260506072516 10 140 0.0 1.6 0.00 0.00 0.00 95
20260506071517 10 147 0.0 3.2 0.00 0.00 0.00 95
20260506070517 10 141 0.0 1.6 0.00 0.00 0.00 97
20260506062516 9 121 0.0 1.6 0.00 0.00 0.00 98
20260506061516 8 0.0 0.0 0.00 0.00 0.00 98
20260506060516 8 148 0.0 1.6 0.00 0.00 0.00 97
20260506050516 8 3 0.0 4.8 0.00 0.00 0.00 96
20260506044517 8 0.0 0.0 0.00 0.00 0.00 96
20260506043535 8 0.0 0.0 0.00 0.00 0.00 96
20260506042515 8 348 0.0 1.6 0.00 0.00 0.00 96
20260506041516 8 13 1.6 3.2 0.00 0.00 0.00 96
20260506040516 8 0.0 0.0 0.00 0.00 0.00 95
20260506035516 8 344 0.0 1.6 0.00 0.00 0.00 95
20260506034517 8 344 0.0 1.6 0.00 0.00 0.00 95
20260506033517 8 341 0.0 1.6 0.00 0.00 0.00 95
20260506032535 8 1 3.2 3.2 0.00 0.00 0.00 94
20260506031515 8 16 0.0 1.6 0.00 0.00 0.00 94
20260506030516 8 345 1.6 3.2 0.00 0.00 0.00 94
20260506025516 8 350 1.6 3.2 0.00 0.00 0.00 94
20260506024516 8 0.0 0.0 0.00 0.00 0.00 94
20260506023558 8 9 1.6 3.2 0.00 0.00 0.00 94
20260506022517 8 349 1.6 3.2 0.00 0.00 0.00 93
20260506021515 8 10 1.6 3.2 0.00 0.00 0.00 94
20260506020515 8 109 0.0 1.6 0.00 0.00 0.00 94
20260506015515 9 0.0 0.0 0.00 0.00 0.00 93
20260506014516 10 120 0.0 3.2 0.00 0.00 0.00 91
20260506013516 10 0.0 0.0 0.00 0.00 0.00 90
20260506012516 10 0.0 0.0 0.00 0.00 0.00 91
20260506011517 10 0.0 0.0 0.00 0.00 0.00 91
20260506010514 10 0.0 0.0 0.00 0.00 0.00 91
20260506005515 10 264 0.0 1.6 0.00 0.00 0.00 90
20260506004516 10 261 0.0 1.6 0.00 0.00 0.00 91
20260506003516 10 305 0.0 1.6 0.00 0.00 0.00 90
20260506002516 10 233 0.0 1.6 0.00 0.00 0.00 89
20260506001517 10 0.0 0.0 0.00 0.00 0.00 90
20260506000537 10 266 0.0 1.6 0.00 0.00 0.00 89
20260505235515 10 227 0.0 4.8 0.00 0.00 0.00 89
20260505234515 10 332 0.0 1.6 0.00 0.00 0.00 90
20260505233516 10 0.0 0.0 0.00 0.00 0.00 89
20260505232516 10 0.0 0.0 0.00 0.00 0.00 89
20260505231516 10 0.0 0.0 0.00 0.00 0.00 89
20260505230537 10 0.0 0.0 0.00 0.00 0.00 90
20260505225517 10 0.0 0.0 0.00 0.00 0.00 90
20260505224517 10 0.0 0.0 0.00 0.00 0.00 90
20260505223515 10 0.0 0.0 0.00 0.00 0.00 90
20260505222535 10 0.0 0.0 0.00 0.00 0.00 90
20260505221616 10 0.0 0.0 0.00 0.00 0.00 90
20260505220516 10 350 0.0 1.6 0.00 0.00 0.00 90
20260505215516 10 347 1.6 1.6 0.00 0.00 0.00 90
20260505214517 9 348 1.6 1.6 0.00 0.00 0.00 90